| time (UTC) | temp C | wind direction | speed KPH | gust KPH | rain 1hr cm | rain 24hr cm | rain mn cm | humidity % | barometer mb |
| 20260509095429 | 19 | 262 | 4.8 | 11.3 | 0.00 | 0.38 | 0.03 | 69 | 1014.9 |
| 20260509094922 | 19 | 271 | 4.8 | 9.7 | 0.00 | 0.41 | 0.03 | 69 | 1015.0 |
| 20260509094416 | 19 | 215 | 4.8 | 9.7 | 0.00 | 0.41 | 0.03 | 73 | 1015.0 |
| 20260509093910 | 18 | 259 | 4.8 | 9.7 | 0.00 | 0.43 | 0.03 | 72 | 1015.1 |
| 20260509093404 | 18 | 278 | 4.8 | 9.7 | 0.00 | 0.43 | 0.03 | 74 | 1015.2 |
| 20260509092858 | 18 | 305 | 4.8 | 9.7 | 0.00 | 0.43 | 0.03 | 73 | 1015.1 |
| 20260509092618 | 18 | 323 | 4.8 | 9.7 | 0.00 | 0.43 | 0.03 | 75 | 1015.1 |
| 20260509091845 | 18 | 252 | 4.8 | 11.3 | 0.00 | 0.43 | 0.03 | 78 | 1015.1 |
| 20260509091340 | 18 | 234 | 4.8 | 11.3 | 0.00 | 0.43 | 0.03 | 78 | 1015.2 |
| 20260509091051 | 18 | 246 | 4.8 | 11.3 | 0.00 | 0.43 | 0.03 | 76 | 1015.2 |
| 20260509090328 | 18 | 302 | 4.8 | 11.3 | 0.00 | 0.43 | 0.03 | 77 | 1015.2 |
| 20260509085822 | 18 | 259 | 4.8 | 8.0 | 0.00 | 0.43 | 0.03 | 80 | 1015.2 |
| 20260509085315 | 18 | 280 | 4.8 | 8.0 | 0.00 | 0.43 | 0.03 | 79 | 1015.3 |
| 20260509084810 | 18 | 277 | 6.4 | 11.3 | 0.00 | 0.43 | 0.03 | 82 | 1015.3 |
| 20260509084304 | 17 | 295 | 6.4 | 11.3 | 0.00 | 0.43 | 0.03 | 80 | 1015.3 |
| 20260509084028 | 18 | 298 | 4.8 | 8.0 | 0.00 | 0.43 | 0.03 | 81 | 1015.3 |
| 20260509083251 | 18 | 271 | 4.8 | 8.0 | 0.00 | 0.43 | 0.03 | 83 | 1015.4 |
| 20260509082746 | 17 | 282 | 3.2 | 8.0 | 0.00 | 0.43 | 0.03 | 85 | 1015.4 |
| 20260509082240 | 17 | 265 | 3.2 | 6.4 | 0.00 | 0.43 | 0.03 | 87 | 1015.4 |
| 20260509081733 | 17 | 323 | 3.2 | 6.4 | 0.00 | 0.43 | 0.03 | 86 | 1015.4 |
| 20260509081228 | 17 | 284 | 3.2 | 6.4 | 0.00 | 0.43 | 0.03 | 87 | 1015.4 |
| 20260509080722 | 17 | 309 | 3.2 | 8.0 | 0.00 | 0.43 | 0.03 | 87 | 1015.5 |
| 20260509080216 | 17 | 297 | 3.2 | 8.0 | 0.00 | 0.43 | 0.03 | 88 | 1015.5 |
| 20260509075709 | 17 | 279 | 4.8 | 8.0 | 0.00 | 0.43 | 0.03 | 88 | 1015.6 |
| 20260509075425 | 17 | 281 | 4.8 | 8.0 | 0.00 | 0.43 | 0.03 | 88 | 1015.5 |
| 20260509074657 | 17 | 324 | 4.8 | 8.0 | 0.00 | 0.43 | 0.03 | 89 | 1015.5 |
| 20260509074411 | 16 | 299 | 1.6 | 8.0 | 0.00 | 0.43 | 0.03 | 89 | 1015.5 |
| 20260509073645 | 16 | 271 | 1.6 | 4.8 | 0.00 | 0.43 | 0.03 | 91 | 1015.5 |
| 20260509073140 | 16 | 35 | 3.2 | 4.8 | 0.00 | 0.43 | 0.03 | 91 | 1015.6 |
| 20260509072634 | 16 | 23 | 3.2 | 8.0 | 0.00 | 0.43 | 0.03 | 92 | 1015.5 |
| 20260509072128 | 16 | 278 | 4.8 | 8.0 | 0.00 | 0.43 | 0.03 | 91 | 1015.6 |
| 20260509071622 | 15 | 307 | 3.2 | 8.0 | 0.00 | 0.43 | 0.03 | 92 | 1015.7 |
| 20260509071116 | 16 | 307 | 3.2 | 8.0 | 0.00 | 0.43 | 0.03 | 92 | 1015.6 |
| 20260509070611 | 15 | 283 | 3.2 | 8.0 | 0.00 | 0.43 | 0.03 | 92 | 1015.7 |
| 20260509070326 | 15 | 277 | 4.8 | 8.0 | 0.00 | 0.43 | 0.03 | 93 | 1015.7 |
| 20260509065558 | 15 | 257 | 4.8 | 8.0 | 0.00 | 0.43 | 0.03 | 92 | 1015.8 |
| 20260509065052 | 15 | 249 | 4.8 | 8.0 | 0.00 | 0.43 | 0.03 | 92 | 1015.8 |
| 20260509064546 | 15 | 264 | 3.2 | 4.8 | 0.00 | 0.43 | 0.03 | 92 | 1015.8 |
| 20260509064040 | 15 | 255 | 3.2 | 4.8 | 0.00 | 0.43 | 0.03 | 92 | 1015.7 |
| 20260509063751 | 15 | 248 | 3.2 | 6.4 | 0.00 | 0.43 | 0.03 | 92 | 1015.7 |
| 20260509063028 | 15 | 229 | 3.2 | 6.4 | 0.00 | 0.43 | 0.03 | 91 | 1015.7 |
| 20260509062521 | 16 | 266 | 1.6 | 6.4 | 0.00 | 0.43 | 0.03 | 90 | 1015.7 |
| 20260509062016 | 16 | 89 | 0.0 | 4.8 | 0.00 | 0.43 | 0.03 | 91 | 1015.7 |
| 20260509061509 | 16 | 89 | 0.0 | 1.6 | 0.00 | 0.43 | 0.03 | 92 | 1015.6 |
| 20260509061228 | 16 | 89 | 1.6 | 3.2 | 0.03 | 0.43 | 0.03 | 92 | 1015.6 |
| 20260509060459 | 15 | 89 | 1.6 | 3.2 | 0.03 | 0.43 | 0.03 | 92 | 1015.7 |
| 20260509055952 | 15 | 89 | 1.6 | 4.8 | 0.03 | 0.43 | 0.03 | 92 | 1015.7 |
| 20260509055452 | 15 | 89 | 3.2 | 6.4 | 0.03 | 0.43 | 0.03 | 92 | 1015.6 |
| 20260509054950 | 15 | 89 | 3.2 | 8.0 | 0.03 | 0.43 | 0.03 | 92 | 1015.6 |
| 20260509054450 | 15 | 106 | 3.2 | 8.0 | 0.03 | 0.43 | 0.03 | 92 | 1015.5 |
| 20260509053950 | 15 | 87 | 3.2 | 9.7 | 0.03 | 0.43 | 0.03 | 92 | 1015.5 |
| 20260509053448 | 15 | 94 | 3.2 | 9.7 | 0.03 | 0.43 | 0.03 | 92 | 1015.3 |
| 20260509052946 | 15 | 132 | 4.8 | 9.7 | 0.03 | 0.43 | 0.03 | 92 | 1015.5 |
| 20260509052446 | 15 | 95 | 4.8 | 9.7 | 0.03 | 0.43 | 0.03 | 92 | 1015.4 |
| 20260509051946 | 15 | 91 | 1.6 | 8.0 | 0.03 | 0.43 | 0.03 | 92 | 1015.4 |
| 20260509051446 | 15 | 99 | 1.6 | 8.0 | 0.03 | 0.43 | 0.03 | 92 | 1015.4 |
| 20260509050946 | 15 | 131 | 1.6 | 3.2 | 0.00 | 0.43 | 0.00 | 92 | 1015.5 |
| 20260509050446 | 15 | 116 | 0.0 | 3.2 | 0.00 | 0.43 | 0.00 | 93 | 1015.4 |
| 20260509045946 | 15 | 142 | 1.6 | 6.4 | 0.00 | 0.43 | 0.00 | 93 | 1015.3 |
| 20260509045445 | 15 | 142 | 3.2 | 6.4 | 0.00 | 0.43 | 0.00 | 93 | 1015.2 |
| 20260509044946 | 15 | 148 | 3.2 | 6.4 | 0.00 | 0.43 | 0.00 | 93 | 1015.4 |
| 20260509044446 | 15 | 140 | 3.2 | 6.4 | 0.00 | 0.43 | 0.00 | 93 | 1015.3 |
| 20260509044208 | 15 | 131 | 1.6 | 6.4 | 0.00 | 0.43 | 0.00 | 93 | 1015.2 |
| 20260509043446 | 15 | 202 | 1.6 | 4.8 | 0.00 | 0.43 | 0.00 | 93 | 1015.1 |
| 20260509042945 | 15 | 300 | 0.0 | 1.6 | 0.00 | 0.43 | 0.00 | 93 | 1015.0 |
| 20260509042445 | 15 | 300 | 0.0 | 0.0 | 0.00 | 0.43 | 0.00 | 94 | 1015.0 |
| 20260509041946 | 15 | 300 | 0.0 | 0.0 | 0.00 | 0.43 | 0.00 | 94 | 1015.0 |
| 20260509041446 | 15 | 300 | 0.0 | 0.0 | 0.00 | 0.43 | 0.00 | 94 | 1015.0 |
| 20260509040945 | 15 | 300 | 0.0 | 0.0 | 0.00 | 0.43 | 0.00 | 94 | 1015.0 |
| 20260509040445 | 15 | 300 | 0.0 | 1.6 | 0.00 | 0.43 | 0.00 | 94 | 1015.0 |
| 20260509035946 | 15 | 300 | 0.0 | 1.6 | 0.00 | 0.43 | 0.00 | 94 | 1015.0 |
| 20260509035446 | 15 | 300 | 0.0 | 1.6 | 0.00 | 0.43 | 0.00 | 94 | 1015.1 |
| 20260509034945 | 15 | 300 | 0.0 | 1.6 | 0.00 | 0.43 | 0.00 | 94 | 1015.1 |
| 20260509034445 | 15 | 300 | 0.0 | 1.6 | 0.00 | 0.43 | 0.00 | 94 | 1015.1 |
| 20260509033946 | 15 | 300 | 0.0 | 3.2 | 0.00 | 0.43 | 0.00 | 94 | 1015.1 |
| 20260509033445 | 15 | 300 | 0.0 | 3.2 | 0.00 | 0.43 | 0.00 | 94 | 1015.1 |
| 20260509032945 | 15 | 301 | 0.0 | 1.6 | 0.00 | 0.43 | 0.00 | 94 | 1015.1 |
| 20260509032445 | 15 | 301 | 0.0 | 3.2 | 0.00 | 0.43 | 0.00 | 94 | 1015.1 |
| 20260509031945 | 15 | 301 | 0.0 | 3.2 | 0.00 | 0.43 | 0.00 | 94 | 1015.1 |
| 20260509031446 | 15 | 301 | 0.0 | 1.6 | 0.00 | 0.43 | 0.00 | 94 | 1015.0 |
| 20260509031427 | 15 | 301 | 0.0 | 1.6 | 0.00 | 0.43 | 0.00 | 94 | 1015.0 |
| 20260509030439 | 15 | 301 | 0.0 | 1.6 | 0.00 | 0.43 | 0.00 | 94 | 1015.1 |
| 20260509030156 | 15 | 301 | 0.0 | 1.6 | 0.00 | 0.43 | 0.00 | 94 | 1015.1 |
| 20260509025427 | 15 | 301 | 0.0 | 1.6 | 0.00 | 0.43 | 0.00 | 94 | 1015.1 |
| 20260509024920 | 15 | 301 | 0.0 | 1.6 | 0.00 | 0.43 | 0.00 | 94 | 1015.1 |
| 20260509024415 | 15 | 301 | 0.0 | 1.6 | 0.00 | 0.43 | 0.00 | 94 | 1015.1 |
| 20260509023908 | 15 | 301 | 0.0 | 1.6 | 0.00 | 0.43 | 0.00 | 94 | 1015.0 |
| 20260509023403 | 15 | 301 | 0.0 | 1.6 | 0.00 | 0.43 | 0.00 | 94 | 1015.0 |
| 20260509022857 | 15 | 301 | 0.0 | 1.6 | 0.00 | 0.43 | 0.00 | 94 | 1015.0 |
| 20260509022350 | 15 | 301 | 0.0 | 1.6 | 0.00 | 0.43 | 0.00 | 94 | 1015.1 |
| 20260509021845 | 15 | 301 | 0.0 | 1.6 | 0.00 | 0.43 | 0.00 | 94 | 1015.2 |
| 20260509021339 | 15 | 301 | 0.0 | 1.6 | 0.00 | 0.43 | 0.00 | 94 | 1015.2 |
| 20260509020833 | 15 | 301 | 0.0 | 1.6 | 0.00 | 0.43 | 0.00 | 94 | 1015.2 |
| 20260509020327 | 15 | 301 | 0.0 | 1.6 | 0.00 | 0.43 | 0.00 | 94 | 1015.2 |
| 20260509015820 | 15 | 301 | 0.0 | 1.6 | 0.00 | 0.43 | 0.00 | 94 | 1015.2 |
| 20260509015315 | 15 | 301 | 0.0 | 1.6 | 0.00 | 0.43 | 0.00 | 94 | 1015.2 |
| 20260509014809 | 15 | 301 | 0.0 | 1.6 | 0.00 | 0.43 | 0.00 | 94 | 1015.1 |
| 20260509014305 | 15 | 301 | 0.0 | 1.6 | 0.00 | 0.43 | 0.00 | 94 | 1015.1 |
| 20260509014019 | 15 | 301 | 0.0 | 0.0 | 0.00 | 0.43 | 0.00 | 94 | 1015.2 |
| 20260509013251 | 15 | 301 | 0.0 | 0.0 | 0.00 | 0.43 | 0.00 | 94 | 1015.2 |
| 20260509012744 | 15 | 301 | 0.0 | 1.6 | 0.00 | 0.43 | 0.00 | 94 | 1015.2 |
| 20260509012238 | 15 | 301 | 0.0 | 1.6 | 0.00 | 0.43 | 0.00 | 94 | 1015.3 |
| 20260509011733 | 15 | 301 | 1.6 | 3.2 | 0.00 | 0.43 | 0.00 | 94 | 1015.3 |
| 20260509011228 | 15 | 301 | 1.6 | 3.2 | 0.00 | 0.43 | 0.00 | 94 | 1015.4 |
| 20260509010721 | 15 | 301 | 1.6 | 1.6 | 0.00 | 0.43 | 0.00 | 94 | 1015.4 |
| 20260509010215 | 15 | 301 | 1.6 | 3.2 | 0.00 | 0.43 | 0.00 | 94 | 1015.4 |
| 20260509005709 | 15 | 301 | 1.6 | 3.2 | 0.00 | 0.43 | 0.00 | 94 | 1015.4 |
| 20260509005652 | 15 | 301 | 1.6 | 3.2 | 0.00 | 0.43 | 0.00 | 94 | 1015.4 |
| 20260509004657 | 15 | 301 | 1.6 | 3.2 | 0.00 | 0.43 | 0.00 | 94 | 1015.4 |
| 20260509004151 | 15 | 301 | 0.0 | 3.2 | 0.00 | 0.43 | 0.00 | 94 | 1015.4 |
| 20260509003645 | 15 | 301 | 1.6 | 4.8 | 0.00 | 0.43 | 0.00 | 94 | 1015.4 |
| 20260509003139 | 15 | 301 | 3.2 | 4.8 | 0.00 | 0.43 | 0.00 | 94 | 1015.5 |
| 20260509002635 | 15 | 301 | 3.2 | 4.8 | 0.00 | 0.43 | 0.00 | 94 | 1015.6 |
| 20260509002127 | 15 | 301 | 3.2 | 4.8 | 0.00 | 0.43 | 0.00 | 94 | 1015.7 |
| 20260509001621 | 15 | 302 | 3.2 | 6.4 | 0.00 | 0.43 | 0.00 | 94 | 1015.7 |
| 20260509001334 | 15 | 301 | 3.2 | 6.4 | 0.00 | 0.43 | 0.00 | 94 | 1015.7 |
| 20260509000609 | 15 | 300 | 1.6 | 4.8 | 0.00 | 0.43 | 0.00 | 94 | 1015.8 |
| 20260509000325 | 15 | 287 | 1.6 | 4.8 | 0.00 | 0.43 | 0.00 | 94 | 1015.8 |
| 20260508235556 | 15 | 257 | 1.6 | 3.2 | 0.00 | 0.43 | 0.00 | 94 | 1015.9 |
| 20260508235051 | 15 | 257 | 1.6 | 3.2 | 0.00 | 0.43 | 0.00 | 94 | 1015.9 |
| 20260508234545 | 15 | 257 | 3.2 | 4.8 | 0.00 | 0.43 | 0.00 | 94 | 1016.0 |
| 20260508234519 | 15 | 257 | 1.6 | 4.8 | 0.00 | 0.43 | 0.00 | 94 | 1016.1 |
| 20260508233753 | 15 | 250 | 1.6 | 3.2 | 0.00 | 0.43 | 0.00 | 94 | 1016.0 |
| 20260508233026 | 15 | 250 | 1.6 | 3.2 | 0.00 | 0.43 | 0.00 | 93 | 1015.9 |
| 20260508232520 | 15 | 250 | 1.6 | 3.2 | 0.00 | 0.43 | 0.00 | 93 | 1015.9 |
| 20260508232015 | 15 | 250 | 1.6 | 4.8 | 0.00 | 0.43 | 0.00 | 93 | 1016.0 |
| 20260508231508 | 15 | 250 | 3.2 | 4.8 | 0.00 | 0.43 | 0.00 | 93 | 1016.1 |
| 20260508231007 | 15 | 245 | 1.6 | 4.8 | 0.00 | 0.43 | 0.00 | 93 | 1016.1 |
| 20260508230457 | 15 | 241 | 1.6 | 3.2 | 0.00 | 0.43 | 0.00 | 93 | 1016.2 |
| 20260508225951 | 15 | 241 | 1.6 | 3.2 | 0.00 | 0.43 | 0.00 | 93 | 1016.2 |
| 20260508225447 | 15 | 252 | 3.2 | 4.8 | 0.00 | 0.43 | 0.00 | 93 | 1016.2 |
| 20260508224940 | 15 | 252 | 3.2 | 4.8 | 0.00 | 0.43 | 0.00 | 93 | 1016.3 |
| 20260508224658 | 15 | 264 | 1.6 | 4.8 | 0.00 | 0.43 | 0.00 | 93 | 1016.3 |
| 20260508223927 | 15 | 250 | 1.6 | 3.2 | 0.00 | 0.43 | 0.00 | 93 | 1016.3 |
| 20260508223421 | 15 | 250 | 1.6 | 3.2 | 0.00 | 0.43 | 0.00 | 93 | 1016.3 |
| 20260508223138 | 15 | 250 | 1.6 | 3.2 | 0.00 | 0.43 | 0.00 | 93 | 1016.3 |
| 20260508222409 | 15 | 250 | 1.6 | 3.2 | 0.00 | 0.43 | 0.00 | 93 | 1016.4 |
| 20260508221903 | 15 | 250 | 1.6 | 3.2 | 0.00 | 0.43 | 0.00 | 93 | 1016.5 |
| 20260508221355 | 15 | 250 | 1.6 | 3.2 | 0.00 | 0.43 | 0.00 | 93 | 1016.5 |
| 20260508220848 | 15 | 247 | 0.0 | 3.2 | 0.00 | 0.43 | 0.00 | 93 | 1016.6 |
| 20260508220345 | 15 | 247 | 0.0 | 3.2 | 0.00 | 0.43 | 0.00 | 93 | 1016.6 |
| 20260508215837 | 15 | 247 | 0.0 | 3.2 | 0.00 | 0.43 | 0.00 | 93 | 1016.6 |
| 20260508215553 | 15 | 247 | 1.6 | 3.2 | 0.00 | 0.43 | 0.00 | 93 | 1016.5 |
| 20260508214825 | 15 | 246 | 1.6 | 3.2 | 0.00 | 0.43 | 0.00 | 93 | 1016.5 |
| 20260508214318 | 15 | 246 | 1.6 | 4.8 | 0.00 | 0.43 | 0.00 | 93 | 1016.5 |
| 20260508213812 | 15 | 247 | 1.6 | 4.8 | 0.00 | 0.43 | 0.00 | 93 | 1016.5 |
| 20260508213307 | 15 | 246 | 1.6 | 4.8 | 0.00 | 0.43 | 0.00 | 93 | 1016.5 |
| 20260508212800 | 15 | 246 | 1.6 | 4.8 | 0.00 | 0.43 | 0.00 | 93 | 1016.6 |
| 20260508212255 | 15 | 246 | 1.6 | 4.8 | 0.00 | 0.43 | 0.00 | 93 | 1016.5 |
| 20260508212016 | 15 | 245 | 1.6 | 4.8 | 0.00 | 0.43 | 0.00 | 93 | 1016.6 |
| 20260508211242 | 15 | 245 | 1.6 | 6.4 | 0.00 | 0.43 | 0.00 | 93 | 1016.6 |
| 20260508211007 | 15 | 242 | 3.2 | 6.4 | 0.00 | 0.43 | 0.00 | 93 | 1016.7 |
| 20260508210458 | 15 | 256 | 1.6 | 4.8 | 0.00 | 0.43 | 0.00 | 92 | 1016.9 |
| 20260508205727 | 15 | 308 | 1.6 | 3.2 | 0.00 | 0.43 | 0.43 | 93 | 1016.7 |
| 20260508205656 | 15 | 308 | 1.6 | 3.2 | 0.00 | 0.43 | 0.43 | 93 | 1016.9 |
| 20260508204934 | 15 | 310 | 1.6 | 6.4 | 0.00 | 0.43 | 0.43 | 93 | 1016.9 |
| 20260508204207 | 15 | 310 | 3.2 | 6.4 | 0.00 | 0.43 | 0.43 | 93 | 1016.7 |
| 20260508203701 | 15 | 259 | 1.6 | 4.8 | 0.00 | 0.43 | 0.43 | 93 | 1016.9 |
| 20260508203154 | 15 | 265 | 3.2 | 6.4 | 0.00 | 0.43 | 0.43 | 93 | 1016.6 |
| 20260508202649 | 15 | 263 | 1.6 | 6.4 | 0.00 | 0.43 | 0.43 | 93 | 1016.9 |
| 20260508202143 | 15 | 238 | 1.6 | 4.8 | 0.00 | 0.43 | 0.43 | 92 | 1016.7 |
| 20260508201637 | 15 | 275 | 3.2 | 6.4 | 0.00 | 0.43 | 0.43 | 92 | 1016.6 |
| 20260508201131 | 15 | 268 | 3.2 | 6.4 | 0.00 | 0.43 | 0.43 | 92 | 1017.0 |
| 20260508200625 | 15 | 283 | 3.2 | 8.0 | 0.00 | 0.43 | 0.43 | 92 | 1016.7 |
| 20260508200118 | 15 | 282 | 3.2 | 8.0 | 0.00 | 0.43 | 0.43 | 92 | 1017.1 |
| 20260508195612 | 15 | 276 | 3.2 | 8.0 | 0.00 | 0.43 | 0.43 | 92 | 1016.9 |
| 20260508195107 | 16 | 300 | 3.2 | 8.0 | 0.00 | 0.43 | 0.43 | 92 | 1016.9 |
| 20260508194601 | 16 | 273 | 3.2 | 8.0 | 0.00 | 0.43 | 0.43 | 92 | 1016.9 |
| 20260508194056 | 16 | 271 | 3.2 | 8.0 | 0.00 | 0.43 | 0.43 | 92 | 1017.0 |
| 20260508193549 | 16 | 281 | 3.2 | 8.0 | 0.00 | 0.43 | 0.43 | 92 | 1016.7 |
| 20260508193043 | 16 | 310 | 3.2 | 6.4 | 0.00 | 0.43 | 0.43 | 92 | 1016.6 |
| 20260508192537 | 16 | 310 | 1.6 | 6.4 | 0.00 | 0.43 | 0.43 | 92 | 1016.5 |
| 20260508192030 | 16 | 274 | 1.6 | 4.8 | 0.00 | 0.43 | 0.43 | 92 | 1016.5 |
| 20260508191525 | 16 | 274 | 1.6 | 3.2 | 0.00 | 0.43 | 0.43 | 92 | 1016.5 |
| 20260508191019 | 16 | 274 | 1.6 | 4.8 | 0.00 | 0.43 | 0.43 | 92 | 1016.5 |
| 20260508190513 | 16 | 274 | 1.6 | 4.8 | 0.00 | 0.43 | 0.43 | 92 | 1016.5 |
| 20260508190007 | 16 | 274 | 1.6 | 4.8 | 0.00 | 0.43 | 0.43 | 92 | 1016.5 |
| 20260508185500 | 16 | 274 | 3.2 | 4.8 | 0.00 | 0.43 | 0.43 | 92 | 1016.4 |
| 20260508184955 | 16 | 277 | 3.2 | 6.4 | 0.00 | 0.43 | 0.43 | 92 | 1016.4 |
| 20260508184449 | 16 | 308 | 3.2 | 6.4 | 0.00 | 0.43 | 0.43 | 92 | 1016.1 |
| 20260508183943 | 16 | 303 | 3.2 | 8.0 | 0.00 | 0.43 | 0.43 | 91 | 1016.0 |
| 20260508183437 | 16 | 264 | 3.2 | 8.0 | 0.00 | 0.43 | 0.43 | 91 | 1016.1 |
| 20260508183147 | 16 | 282 | 4.8 | 9.7 | 0.00 | 0.43 | 0.43 | 91 | 1016.1 |
| 20260508182650 | 16 | 293 | 4.8 | 9.7 | 0.00 | 0.43 | 0.43 | 91 | 1016.2 |
| 20260508181918 | 16 | 269 | 4.8 | 9.7 | 0.00 | 0.43 | 0.43 | 91 | 1016.1 |
| 20260508181413 | 16 | 274 | 4.8 | 11.3 | 0.00 | 0.43 | 0.43 | 91 | 1015.8 |
| 20260508180906 | 16 | 286 | 4.8 | 11.3 | 0.00 | 0.43 | 0.43 | 91 | 1015.9 |
| 20260508180401 | 16 | 250 | 4.8 | 9.7 | 0.00 | 0.43 | 0.43 | 91 | 1015.9 |
| 20260508175854 | 16 | 276 | 4.8 | 9.7 | 0.00 | 0.43 | 0.43 | 92 | 1015.8 |
| 20260508175348 | 16 | 287 | 3.2 | 8.0 | 0.00 | 0.43 | 0.43 | 92 | 1015.7 |
| 20260508174843 | 16 | 288 | 3.2 | 6.4 | 0.00 | 0.43 | 0.43 | 92 | 1015.5 |
| 20260508174337 | 16 | 290 | 3.2 | 8.0 | 0.00 | 0.43 | 0.43 | 92 | 1015.5 |
| 20260508173831 | 16 | 307 | 3.2 | 8.0 | 0.00 | 0.43 | 0.43 | 91 | 1015.5 |
| 20260508173327 | 16 | 309 | 3.2 | 8.0 | 0.00 | 0.43 | 0.43 | 91 | 1015.5 |
| 20260508172826 | 16 | 266 | 3.2 | 8.0 | 0.00 | 0.43 | 0.43 | 91 | 1015.5 |
| 20260508172327 | 16 | 326 | 4.8 | 8.0 | 0.00 | 0.43 | 0.43 | 91 | 1015.4 |
| 20260508171825 | 16 | 283 | 4.8 | 9.7 | 0.00 | 0.43 | 0.43 | 90 | 1015.4 |
| 20260508171325 | 16 | 281 | 4.8 | 9.7 | 0.00 | 0.43 | 0.43 | 90 | 1015.4 |
| 20260508171042 | 16 | 293 | 4.8 | 8.0 | 0.00 | 0.43 | 0.43 | 90 | 1015.4 |
| 20260508170323 | 16 | 281 | 4.8 | 9.7 | 0.00 | 0.43 | 0.43 | 90 | 1015.3 |
| 20260508165820 | 16 | 277 | 3.2 | 9.7 | 0.00 | 0.43 | 0.43 | 89 | 1015.3 |
| 20260508165319 | 16 | 266 | 3.2 | 9.7 | 0.00 | 0.43 | 0.43 | 90 | 1015.4 |
| 20260508164818 | 16 | 236 | 3.2 | 8.0 | 0.00 | 0.43 | 0.43 | 90 | 1015.4 |
| 20260508164806 | 16 | 277 | 3.2 | 8.0 | 0.00 | 0.43 | 0.43 | 90 | 1015.4 |
| 20260508164049 | 16 | 256 | 3.2 | 9.7 | 0.00 | 0.43 | 0.43 | 90 | 1015.4 |
| 20260508163319 | 16 | 257 | 3.2 | 9.7 | 0.00 | 0.43 | 0.43 | 90 | 1015.4 |
| 20260508162818 | 16 | 255 | 3.2 | 6.4 | 0.00 | 0.43 | 0.43 | 90 | 1015.4 |
| 20260508162319 | 16 | 288 | 3.2 | 8.0 | 0.00 | 0.43 | 0.43 | 89 | 1015.3 |
| 20260508161819 | 16 | 266 | 3.2 | 8.0 | 0.00 | 0.43 | 0.43 | 89 | 1015.3 |
| 20260508161319 | 16 | 305 | 1.6 | 6.4 | 0.00 | 0.43 | 0.43 | 88 | 1015.1 |
| 20260508160818 | 16 | 257 | 3.2 | 8.0 | 0.00 | 0.43 | 0.43 | 88 | 1015.3 |
| 20260508160542 | 16 | 227 | 3.2 | 8.0 | 0.00 | 0.43 | 0.43 | 88 | 1015.4 |
| 20260508160039 | 16 | 270 | 1.6 | 4.8 | 0.00 | 0.43 | 0.43 | 87 | 1015.5 |
| 20260508155319 | 16 | 271 | 1.6 | 4.8 | 0.00 | 0.43 | 0.43 | 87 | 1015.2 |
| 20260508154819 | 16 | 271 | 1.6 | 3.2 | 0.00 | 0.43 | 0.43 | 87 | 1015.2 |
| 20260508154318 | 16 | 271 | 1.6 | 3.2 | 0.00 | 0.43 | 0.43 | 86 | 1015.1 |
| 20260508153818 | 17 | 271 | 1.6 | 4.8 | 0.00 | 0.43 | 0.43 | 86 | 1015.2 |
| 20260508153318 | 17 | 271 | 1.6 | 4.8 | 0.00 | 0.43 | 0.43 | 86 | 1015.3 |
| 20260508152814 | 17 | 271 | 1.6 | 3.2 | 0.00 | 0.43 | 0.43 | 85 | 1015.2 |
| 20260508152314 | 17 | 271 | 0.0 | 1.6 | 0.00 | 0.43 | 0.43 | 84 | 1015.3 |
| 20260508151814 | 17 | 271 | 1.6 | 4.8 | 0.00 | 0.43 | 0.43 | 83 | 1015.3 |
| 20260508151541 | 17 | 271 | 1.6 | 4.8 | 0.00 | 0.43 | 0.43 | 83 | 1015.2 |
| 20260508150815 | 17 | 271 | 1.6 | 4.8 | 0.00 | 0.43 | 0.43 | 83 | 1015.3 |
| 20260508150314 | 17 | 271 | 3.2 | 4.8 | 0.00 | 0.43 | 0.43 | 82 | 1015.4 |
| 20260508145815 | 17 | 271 | 1.6 | 8.0 | 0.00 | 0.43 | 0.43 | 83 | 1015.2 |
| 20260508145315 | 17 | 284 | 3.2 | 8.0 | 0.00 | 0.43 | 0.43 | 83 | 1015.2 |
| 20260508144812 | 17 | 281 | 3.2 | 8.0 | 0.00 | 0.43 | 0.43 | 84 | 1015.5 |
| 20260508144532 | 17 | 261 | 4.8 | 8.0 | 0.00 | 0.43 | 0.43 | 84 | 1015.5 |
| 20260508143800 | 17 | 297 | 3.2 | 6.4 | 0.00 | 0.43 | 0.43 | 84 | 1015.2 |
| 20260508143254 | 17 | 267 | 3.2 | 6.4 | 0.00 | 0.43 | 0.43 | 85 | 1015.2 |
| 20260508142755 | 17 | 284 | 3.2 | 8.0 | 0.00 | 0.43 | 0.43 | 85 | 1015.2 |
| 20260508142252 | 17 | 253 | 3.2 | 8.0 | 0.00 | 0.43 | 0.43 | 85 | 1015.5 |
| 20260508141752 | 17 | 272 | 3.2 | 4.8 | 0.00 | 0.43 | 0.43 | 84 | 1015.4 |
| 20260508141253 | 17 | 276 | 3.2 | 4.8 | 0.00 | 0.43 | 0.43 | 84 | 1015.2 |
| 20260508140752 | 17 | 275 | 3.2 | 4.8 | 0.00 | 0.43 | 0.43 | 84 | 1015.2 |
| 20260508140252 | 17 | 275 | 3.2 | 6.4 | 0.00 | 0.43 | 0.43 | 84 | 1015.3 |
| 20260508135750 | 17 | 275 | 3.2 | 6.4 | 0.00 | 0.43 | 0.43 | 84 | 1015.4 |
| 20260508135513 | 17 | 276 | 1.6 | 4.8 | 0.00 | 0.43 | 0.43 | 84 | 1015.4 |
| 20260508134747 | 17 | 266 | 3.2 | 8.0 | 0.00 | 0.43 | 0.43 | 84 | 1015.4 |
| 20260508134244 | 17 | 309 | 4.8 | 8.0 | 0.00 | 0.43 | 0.43 | 83 | 1015.4 |
| 20260508134012 | 17 | 323 | 3.2 | 8.0 | 0.00 | 0.43 | 0.43 | 83 | 1015.6 |
| 20260508133245 | 17 | 306 | 3.2 | 8.0 | 0.00 | 0.43 | 0.43 | 84 | 1015.6 |
| 20260508132743 | 17 | 305 | 4.8 | 11.3 | 0.00 | 0.43 | 0.43 | 85 | 1015.7 |
| 20260508132242 | 17 | 280 | 4.8 | 11.3 | 0.00 | 0.43 | 0.43 | 85 | 1015.6 |
| 20260508131743 | 17 | 300 | 4.8 | 9.7 | 0.00 | 0.43 | 0.43 | 87 | 1015.8 |
| 20260508131241 | 17 | 278 | 4.8 | 9.7 | 0.00 | 0.43 | 0.43 | 87 | 1015.8 |
| 20260508130738 | 17 | 292 | 3.2 | 9.7 | 0.00 | 0.43 | 0.43 | 88 | 1015.8 |
| 20260508130237 | 16 | 307 | 4.8 | 9.7 | 0.00 | 0.43 | 0.43 | 88 | 1015.9 |
| 20260508125735 | 16 | 256 | 4.8 | 9.7 | 0.00 | 0.43 | 0.43 | 88 | 1016.0 |
| 20260508125228 | 16 | 289 | 3.2 | 6.4 | 0.00 | 0.43 | 0.43 | 89 | 1016.0 |
| 20260508124722 | 16 | 282 | 1.6 | 6.4 | 0.00 | 0.43 | 0.43 | 89 | 1016.1 |
| 20260508124216 | 16 | 271 | 1.6 | 4.8 | 0.00 | 0.43 | 0.43 | 90 | 1016.2 |
| 20260508123935 | 16 | 257 | 1.6 | 4.8 | 0.03 | 0.43 | 0.43 | 90 | 1016.2 |
| 20260508123204 | 16 | 246 | 1.6 | 4.8 | 0.05 | 0.43 | 0.43 | 90 | 1016.2 |
| 20260508122923 | 16 | 259 | 1.6 | 4.8 | 0.08 | 0.43 | 0.43 | 90 | 1016.2 |
| 20260508122152 | 16 | 259 | 1.6 | 4.8 | 0.10 | 0.43 | 0.43 | 91 | 1016.3 |
| 20260508121647 | 16 | 252 | 3.2 | 4.8 | 0.13 | 0.43 | 0.43 | 91 | 1016.4 |
| 20260508121145 | 16 | 259 | 1.6 | 4.8 | 0.13 | 0.43 | 0.43 | 90 | 1016.3 |
| 20260508120630 | 16 | 278 | 1.6 | 4.8 | 0.15 | 0.43 | 0.43 | 90 | 1016.5 |
| 20260508120607 | 16 | 295 | 1.6 | 4.8 | 0.18 | 0.43 | 0.43 | 90 | 1016.5 |
| 20260508115618 | 17 | 301 | 1.6 | 4.8 | 0.20 | 0.43 | 0.43 | 90 | 1016.6 |
| 20260508115112 | 17 | 289 | 1.6 | 4.8 | 0.23 | 0.43 | 0.43 | 89 | 1016.7 |
| 20260508114607 | 17 | 217 | 0.0 | 3.2 | 0.25 | 0.43 | 0.43 | 89 | 1016.9 |
| 20260508114320 | 17 | 217 | 0.0 | 1.6 | 0.25 | 0.41 | 0.43 | 89 | 1017.0 |
| 20260508113554 | 17 | 217 | 0.0 | 1.6 | 0.28 | 0.41 | 0.41 | 88 | 1017.2 |
| 20260508113048 | 17 | 217 | 0.0 | 1.6 | 0.25 | 0.38 | 0.38 | 87 | 1017.3 |
| 20260508112542 | 17 | 217 | 0.0 | 1.6 | 0.23 | 0.33 | 0.33 | 87 | 1017.3 |
| 20260508112035 | 17 | 217 | 0.0 | 1.6 | 0.23 | 0.33 | 0.33 | 87 | 1017.4 |
| 20260508111757 | 17 | 217 | 0.0 | 1.6 | 0.20 | 0.30 | 0.30 | 87 | 1017.4 |
| 20260508111024 | 17 | 217 | 0.0 | 1.6 | 0.20 | 0.28 | 0.30 | 87 | 1017.4 |
| 20260508110518 | 17 | 217 | 0.0 | 0.0 | 0.18 | 0.25 | 0.28 | 89 | 1017.5 |
| 20260508110012 | 17 | 217 | 0.0 | 1.6 | 0.18 | 0.23 | 0.23 | 89 | 1017.6 |
| 20260508105506 | 17 | 217 | 0.0 | 1.6 | 0.15 | 0.20 | 0.23 | 89 | 1017.6 |
| 20260508105223 | 17 | 217 | 0.0 | 3.2 | 0.15 | 0.18 | 0.18 | 89 | 1017.7 |
| 20260508104454 | 17 | 217 | 0.0 | 3.2 | 0.13 | 0.18 | 0.15 | 89 | 1017.8 |
| 20260508103947 | 17 | 217 | 0.0 | 3.2 | 0.13 | 0.15 | 0.15 | 90 | 1017.9 |
| 20260508103442 | 17 | 217 | 0.0 | 3.2 | 0.10 | 0.15 | 0.13 | 90 | 1017.9 |
| 20260508102937 | 17 | 217 | 1.6 | 4.8 | 0.13 | 0.15 | 0.13 | 89 | 1018.0 |
| 20260508102430 | 17 | 217 | 1.6 | 4.8 | 0.13 | 0.15 | 0.13 | 89 | 1018.1 |
| 20260508102148 | 17 | 217 | 1.6 | 3.2 | 0.10 | 0.13 | 0.10 | 88 | 1018.2 |
| 20260508101418 | 17 | 217 | 0.0 | 3.2 | 0.08 | 0.10 | 0.08 | 88 | 1018.1 |
| 20260508100911 | 17 | 217 | 0.0 | 1.6 | 0.08 | 0.10 | 0.08 | 88 | 1018.1 |
| 20260508100406 | 17 | 217 | 0.0 | 4.8 | 0.08 | 0.10 | 0.08 | 87 | 1018.3 |
| 20260508095900 | 17 | 217 | 1.6 | 4.8 | 0.05 | 0.08 | 0.05 | 88 | 1018.5 |